Satellite-Ground Cal/Val Region Overpasses Predictions

Prediction of Satellite NPP Overpassing Cal/Val Region: PacNW

Region Location: (Latitude: 10.00, Longitude: 139.50) to (Latitude: 22.70, Longitude: 165.60).

Table of predicted overpasses for the next 14.0 days since TLE Epoch: 8/13/2023
Interval Starting Time Starting Location Ending Time Ending Location
1 08/13/2023 02:40:45 ( 10.03, 159.85) 08/13/2023 02:44:20 ( 22.65, 156.85)
2 08/13/2023 15:12:38 ( 22.67, 157.07) 08/13/2023 15:16:13 ( 10.05, 154.07)
3 08/14/2023 02:21:42 ( 10.01, 164.61) 08/14/2023 02:25:18 ( 22.69, 161.60)
4 08/14/2023 14:53:35 ( 22.69, 161.83) 08/14/2023 14:57:11 ( 10.01, 158.82)
5 08/15/2023 03:44:10 ( 10.00, 143.99) 08/15/2023 03:47:46 ( 22.68, 140.98)
6 08/15/2023 14:35:42 ( 18.65, 165.59) 08/15/2023 14:38:09 ( 10.02, 163.58)
7 08/15/2023 16:16:03 ( 22.69, 141.21) 08/15/2023 16:18:03 ( 15.65, 139.51)
8 08/16/2023 03:25:08 ( 10.05, 148.74) 08/16/2023 03:28:43 ( 22.67, 145.74)
9 08/16/2023 15:57:01 ( 22.65, 145.96) 08/16/2023 16:00:36 ( 10.03, 142.96)
10 08/17/2023 03:06:06 ( 10.04, 153.50) 08/17/2023 03:09:41 ( 22.66, 150.50)
11 08/17/2023 15:37:59 ( 22.66, 150.72) 08/17/2023 15:41:34 ( 10.04, 147.72)
12 08/18/2023 02:47:03 ( 10.02, 158.26) 08/18/2023 02:50:38 ( 22.65, 155.26)
13 08/18/2023 15:18:56 ( 22.67, 155.48) 08/18/2023 15:22:31 ( 10.05, 152.48)
14 08/19/2023 02:28:01 ( 10.01, 163.02) 08/19/2023 02:31:37 ( 22.70, 160.00)
15 08/19/2023 14:59:54 ( 22.68, 160.23) 08/19/2023 15:03:30 ( 10.00, 157.22)
16 08/20/2023 02:11:37 ( 19.34, 165.59) 08/20/2023 02:12:34 ( 22.69, 164.76)
17 08/20/2023 03:50:28 ( 10.01, 142.40) 08/20/2023 03:53:56 ( 22.23, 139.50)
18 08/20/2023 14:40:51 ( 22.69, 164.99) 08/20/2023 14:44:27 ( 10.01, 161.98)
19 08/20/2023 16:22:21 ( 22.68, 139.62) 08/20/2023 16:22:29 ( 22.21, 139.50)
20 08/21/2023 03:31:26 ( 10.00, 147.16) 08/21/2023 03:35:02 ( 22.69, 144.15)
21 08/21/2023 16:03:19 ( 22.69, 144.38) 08/21/2023 16:06:55 ( 10.01, 141.37)
22 08/22/2023 03:12:25 ( 10.06, 151.90) 08/22/2023 03:16:00 ( 22.68, 148.90)
23 08/22/2023 15:44:16 ( 22.70, 149.14) 08/22/2023 15:47:52 ( 10.02, 146.12)
24 08/23/2023 02:53:22 ( 10.05, 156.66) 08/23/2023 02:56:57 ( 22.67, 153.66)
25 08/23/2023 15:25:15 ( 22.65, 153.88) 08/23/2023 15:28:50 ( 10.03, 150.88)
26 08/24/2023 02:34:20 ( 10.04, 161.42) 08/24/2023 02:37:55 ( 22.67, 158.42)
27 08/24/2023 15:06:12 ( 22.65, 158.64) 08/24/2023 15:09:47 ( 10.03, 155.64)
28 08/25/2023 02:16:00 ( 12.57, 165.60) 08/25/2023 02:18:52 ( 22.66, 163.18)
29 08/25/2023 03:56:47 ( 10.05, 140.80) 08/25/2023 03:58:22 ( 15.63, 139.51)
30 08/25/2023 14:47:10 ( 22.66, 163.40) 08/25/2023 14:50:45 ( 10.04, 160.40)
31 08/26/2023 03:37:45 ( 10.04, 145.56) 08/26/2023 03:41:20 ( 22.67, 142.56)
32 08/26/2023 14:31:10 ( 11.92, 165.59) 08/26/2023 14:31:42 ( 10.04, 165.16)
